{"data":{"norad_id":48390,"epoch":"2026-05-24T18:40:42.896064Z","epoch_age_seconds":104689,"freshness":"FRESH","line1":"1 48390U 21038AP  26144.77827426  .00002044  00000+0  77593-4 0  9992","line2":"2 48390  53.1612 338.7718 0001203  96.2790 263.8348 15.31706513280310","mean_motion":15.31706513,"eccentricity":0.0001203,"inclination_deg":53.1612,"raan_deg":338.7718,"arg_perigee_deg":96.279,"mean_anomaly_deg":263.8348,"bstar":7.7593e-5,"rev_number":28031,"period_min":94.012788205726,"perigee_km":469.89666281343,"apogee_km":471.54449794727,"semimajor_km":6848.8575803804,"source":"CELESTRAK","updated_at":"2026-05-25T13:38:16.690885Z"}}